Regional Weather Roundup
Issued by NWS

Home | Current Version | Previous Version | Graphics & Text | Print | Product List | Glossary On
Versions: 1 2 3 4 5 6 7 8 9 10 11 12 13 14 15 16 17 18 19 20 21 22 23 24 25 26 27 28 29 30 31 32 33 34 35 36 37 38 39 40 41 42 43 44 45 46 47 48 49 50
000
ASUS45 KABQ 111401
RWRNM
NEW MEXICO REGIONAL WEATHER ROUNDUP
NATIONAL WEATHER SERVICE ALBUQUERQUE NM
700 AM MST THU FEB 11 2016

NOTE: "FAIR" MEANS FEW OR NO CLOUDS BELOW 12,000 FEET AGL WITH NO
       SIGNIFICANT WEATHER OR OBSTRUCTIONS TO VISION.

      THIS PRODUCT IS RELEASED AS TWO VERSIONS.  ONE VERSION NEAR
      THE TOP OF THE HOUR CONTAINING PRELIMINARY DATA FROM ALBUQUERQUE
      AND OTHER STATIONS.  A FINAL VERSION WITH ADDITIONAL DATA IS
      ISSUED ABOUT 10 MINUTES AFTER THE HOUR.

NMZ501-503-504-510>518-111500-
NORTHWEST PLATEAU/NORTHCENTRAL MOUNTAINS

CITY           SKY/WX    TMP DP  RH WIND       PRES   REMARKS
FARMINGTON     CLOUDY    21  17  84 NE6       30.39R WCI  13
SANTA FE       CLOUDY    27  19  72 N14       30.32S WCI  16
TAOS           CLOUDY    19  16  86 N5        30.37R WCI  13
ANGEL FIRE     FAIR      -1  -5  82 CALM      30.39S

$$
NMZ402-403-502-505>509-111500-
WESTCENTRAL MOUNTAINS/SOUTHWEST MOUNTAINS

CITY           SKY/WX    TMP DP  RH WIND       PRES   REMARKS
GALLUP         PTCLDY    16  13  88 CALM      30.40R
GRANTS         CLEAR     10   7  88 N3        30.41R
SILVER CITY      N/A     32  10  40 N12       30.32S WCI  23

$$
NMZ407-409-411-412-111500-
SOUTHERN DESERTS

CITY           SKY/WX    TMP DP  RH WIND       PRES   REMARKS
DEMING         MOCLDY    31  17  56 W7        30.28S WCI  24
ALAMOGORDO     CLOUDY    28  12  50 CALM      30.26R
T OR C         PTCLDY    40  15  36 CALM      30.29R

$$
NMZ519>523-111500-
CENTRAL VALLEYS/CENTRAL HIGHLANDS

CITY           SKY/WX    TMP DP  RH WIND       PRES   REMARKS
ALBUQUERQUE    CLOUDY    35  20  54 N8        30.34S WCI  29
DOUBLE EAGLE   CLEAR     28  16  59 NW8       30.34S WCI  20
MORIARTY ARPT  FAIR      25  19  76 N3        30.33R
CLINES CORNERS CLOUDY    34  16  47 N10       30.31R WCI  26
BELEN          FAIR      27  17  65 N9        30.33S WCI  18
SOCORRO        NOT AVBL

$$
NMZ524>526-539-540-111500-
SOUTHCENTRAL MOUNTAINS

CITY           SKY/WX    TMP DP  RH WIND       PRES   REMARKS
RUIDOSO          N/A     43   5  21 CALM      30.33R

$$
NMZ527>531-111500-
NORTHEAST HIGHLANDS/NORTHEAST PLAINS

CITY           SKY/WX    TMP DP  RH WIND       PRES   REMARKS
LAS VEGAS      CLOUDY    37   6  27 N3        30.31R
RATON          CLOUDY    25  11  55 NW6       30.26S WCI  18
CLAYTON        CLOUDY    34  16  47 W8        30.22R WCI  27

$$
NMZ532>537-111500-
EASTCENTRAL PLAINS

CITY           SKY/WX    TMP DP  RH WIND       PRES   REMARKS
TUCUMCARI      CLOUDY    34  14  43 N3        30.23R
CANNON AFB     NOT AVBL
CLOVIS AIRPORT CLEAR     36  18  48 N14       30.21R WCI  27

$$
NMZ028-029-538-111500-
SOUTHEAST PLAINS

CITY           SKY/WX    TMP DP  RH WIND       PRES   REMARKS
ROSWELL        CLOUDY    31  18  58 N3        30.22R
ARTESIA        CLOUDY    32  21  64 NW13      30.21R WCI  22
CARLSBAD       CLOUDY    32  21  64 W7        30.17R WCI  26
HOBBS          CLEAR     39  19  45 NW12      30.16R WCI  32


$$



USA.gov is the U.S. government's official web portal to all federal, state and local government web resources and services.